{"data":{"norad_id":45679,"intl_designator":"2020-035Y","name":"STARLINK-1394","alt_names":[],"object_type":"PAYLOAD","status":"ACTIVE","operator":null,"country":"US","launch_date":"2020-06-04","launch_site_code":"AFETR","launch_vehicle":null,"mission":null,"orbit_class":"UNKNOWN","rcs_meters":null,"size_class":null,"mass_kg":null,"dimensions":null,"purposes":["comms"],"wikipedia_slug":null,"has_3d_model":false,"image_url":null,"decayed_at":null,"tle_current":{"epoch":"2026-09-20T02:59:18.894336Z","epoch_age_seconds":50566,"freshness":"FRESH","line1":"1 45679U 20035Y   26263.12452424  .00079916  00000+0  43530-3 0  9993","line2":"2 45679  53.0313 161.2536 0005043 102.1617 257.9968 15.79256013349610","mean_motion":15.79256013,"eccentricity":0.0005043,"inclination_deg":53.0313,"raan_deg":161.2536,"arg_perigee_deg":102.1617,"mean_anomaly_deg":257.9968,"bstar":0.0004353,"rev_number":34961,"period_min":91.182176173231,"perigee_km":329.163210755,"apogee_km":335.93160704982,"semimajor_km":6710.6844089024,"source":"CELESTRAK","updated_at":"2026-09-20T09:00:38.452206Z"}}}